Regional Weather Roundup
Issued by NWS Green Bay, WI

Home | Current Version | Previous Version | Graphics & Text | Print | Product List | Glossary Off
Versions: 1 2 3 4 5 6 7 8 9 10 11 12 13 14 15 16 17 18 19 20 21 22 23 24 25 26 27 28 29 30 31 32 33 34 35 36 37 38 39 40 41 42 43 44 45 46 47 48 49 50

000
ASUS43 KGRB 250200
RWRGRB

NORTH-CENTRAL AND NORTHEAST WISCONSIN REGIONAL WEATHER ROUNDUP
NATIONAL WEATHER SERVICE GREEN BAY WI
900 PM CDT FRI MAR 24 2017

WIZ005-009-010>012-018-019-250300-
NORTH CENTRAL WISCONSIN

CITY           SKY/WX    TMP DP  RH WIND       PRES   REMARKS
IRONWOOD       CLOUDY    34  31  88 NE5       30.22R
MANITOWISH WTR NOT AVBL
ARBOR VITAE    NOT AVBL
EAGLE RIVER    NOT AVBL
LAND O LAKES   NOT AVBL
RHINELANDER    CLOUDY    36  33  89 NE8       30.17R
PHILLIPS       NOT AVBL
ANTIGO         NOT AVBL
TOMAHAWK       NOT AVBL
MERRILL        NOT AVBL
$$

WIZ013-073-250300-
NORTHEAST WISCONSIN

CITY           SKY/WX    TMP DP  RH WIND       PRES   REMARKS
IRON MOUNTAIN  CLOUDY    35  29  78 N10       30.17R
MARINETTE        N/A    N/A N/A N/A MISG        N/A
$$

WIZ017-030-035>037-045-250300-
CENTRAL WISCONSIN

CITY           SKY/WX    TMP DP  RH WIND       PRES   REMARKS
MEDFORD        NOT AVBL
WAUSAU         CLOUDY    37  34  89 NE9       30.13R
MOSINEE        CLOUDY    36  36 100 N7        30.14R
MARSHFIELD     CLOUDY    37  35  92 NE6       30.12R
WISC RAPIDS    LGT RAIN  38  37  97 NE8       30.14R
STEVENS POINT  NOT AVBL
WAUPACA        NOT AVBL
SHAWANO        NOT AVBL
CLINTONVILLE   NOT AVBL
WAUTOMA        RAIN      36  35  96 NE9       30.12R
$$

WIZ038-039-048-051-250300-
FOX VALLEY

CITY           SKY/WX    TMP DP  RH WIND       PRES   REMARKS
NWS GREEN BAY  LGT RAIN  36  36 100 NE14      30.14S FOG
APPLETON       LGT RAIN  36  36 100 NE14G22   30.09F
OSHKOSH        LGT RAIN  36  34  92 NE13      30.11R
FOND DU LAC    CLOUDY    37  34  89 N10       30.12R
$$

WIZ022-050-052-250300-
EAST CENTRAL WISCONSIN

CITY           SKY/WX    TMP DP  RH WIND       PRES   REMARKS
EPHRAIM        NOT AVBL
WASHINGTON ISL NOT AVBL
STURGEON BAY   CLOUDY    35  34  96 MISG      30.16R
MANITOWOC      NOT AVBL
SHEBOYGAN      CLOUDY    36  33  89 N17G24    30.11R
$$

LMZ563-521-522-541>543-250300-
LAKESHORE

STATION/POSITION TIME  TEMP    WIND        PRES    VSBY  WAVE
                       AIR SEA DIR/SP/G                  HT/PER
                 (UTC) (F)     (DEG/KT/KT) (MB)    (MI)  (FT/S)
SHEBOYGAN LKSHOR 0100   36      10/ 19/ 21 1019.6R
KEWAUNEE LKSHORE 0130   36      30/  9/ 13 1020.4R
NORTHPORT PIER   0140   35      10/ 13/ 16 1021.3R
CHAMBERS ISLAND  0130   34      10/ 10/ 12 1021.0R
MENOMINEE LKSHOR 0130   35      10/ 13/ 15 1020.2R
$$




USA.gov is the U.S. government's official web portal to all federal, state and local government web resources and services.